| time (UTC) | temp F | wind direction | speed MPH | gust MPH | rain 1hr in | rain 24hr in | rain mn in | humidity % | barometer mb |
| 20260505205020 | 80 | 53 | 0.0 | 0.0 | 0.00 | 0.45 | 0.45 | 90 | 1010.4 |
| 20260505204518 | 80 | 52 | 0.0 | 0.0 | 0.00 | 0.45 | 0.45 | 91 | 1010.4 |
| 20260505204015 | 80 | 56 | 0.0 | 0.0 | 0.00 | 0.45 | 0.45 | 91 | 1010.4 |
| 20260505203511 | 79 | 91 | 0.0 | 0.0 | 0.00 | 0.45 | 0.45 | 91 | 1010.7 |
| 20260505203008 | 79 | 46 | 0.0 | 0.0 | 0.00 | 0.45 | 0.45 | 91 | 1010.7 |
| 20260505202504 | 78 | 64 | 0.0 | 0.0 | 0.00 | 0.18 | 0.18 | 91 | 1010.4 |
| 20260505173246 | 78 | 170 | 1.0 | 5.0 | 0.00 | 0.18 | 0.18 | 90 | 1008.7 |
| 20260505172743 | 78 | 170 | 1.0 | 5.0 | 0.00 | 0.18 | 0.18 | 90 | 1008.7 |
| 20260505172240 | 78 | 170 | 1.0 | 5.0 | 0.00 | 0.18 | 0.18 | 90 | 1008.7 |
| 20260505171740 | 78 | 108 | 0.0 | 2.0 | 0.00 | 0.18 | 0.18 | 90 | 1008.7 |
| 20260505171237 | 78 | 108 | 0.0 | 2.0 | 0.00 | 0.18 | 0.18 | 90 | 1008.7 |
| 20260505170734 | 78 | 125 | 0.0 | 4.0 | 0.00 | 0.18 | 0.18 | 90 | 1008.7 |
| 20260505170231 | 78 | 163 | 1.0 | 4.0 | 0.00 | 0.18 | 0.18 | 90 | 1008.7 |
| 20260505165726 | 78 | 194 | 1.0 | 5.0 | 0.00 | 0.18 | 0.18 | 91 | 1009.0 |
| 20260505165222 | 78 | 91 | 0.0 | 0.0 | 0.00 | 0.18 | 0.18 | 92 | 1008.7 |
| 20260505164718 | 78 | 94 | 0.0 | 3.0 | 0.00 | 0.18 | 0.18 | 92 | 1008.7 |
| 20260505164215 | 78 | 306 | 1.0 | 2.0 | 0.00 | 0.18 | 0.18 | 91 | 1008.7 |
| 20260505163713 | 78 | 13 | 0.0 | 0.0 | 0.00 | 0.18 | 0.18 | 91 | 1008.7 |
| 20260505163212 | 78 | 352 | 0.0 | 0.0 | 0.00 | 0.18 | 0.18 | 91 | 1008.7 |
| 20260505162709 | 78 | 78 | 0.0 | 0.0 | 0.00 | 0.18 | 0.18 | 91 | 1008.7 |
| 20260505162206 | 78 | 225 | 0.0 | 3.0 | 0.00 | 0.18 | 0.18 | 91 | 1008.7 |
| 20260505161702 | 77 | 154 | 0.0 | 0.0 | 0.00 | 0.18 | 0.18 | 91 | 1009.0 |
| 20260505161200 | 77 | 74 | 0.0 | 0.0 | 0.00 | 0.18 | 0.18 | 91 | 1009.0 |
| 20260505160658 | 77 | 89 | 0.0 | 0.0 | 0.00 | 0.18 | 0.18 | 91 | 1009.0 |
| 20260505160155 | 77 | 76 | 0.0 | 0.0 | 0.00 | 0.18 | 0.18 | 91 | 1009.0 |
| 20260505153134 | 77 | 114 | 0.0 | 3.0 | 0.00 | 0.18 | 0.18 | 91 | 1009.3 |
| 20260505152631 | 77 | 86 | 0.0 | 1.0 | 0.47 | 0.15 | 0.15 | 91 | 1009.3 |
| 20260505152127 | 77 | 57 | 0.0 | 0.0 | 0.00 | 0.15 | 0.15 | 91 | 1009.3 |
| 20260505151622 | 77 | 74 | 0.0 | 0.0 | 0.00 | 0.15 | 0.15 | 91 | 1009.3 |
| 20260505151120 | 77 | 131 | 0.0 | 0.0 | 0.00 | 0.15 | 0.15 | 90 | 1009.3 |
| 20260505150616 | 77 | 37 | 0.0 | 0.0 | 0.00 | 0.15 | 0.15 | 90 | 1009.3 |
| 20260505150113 | 77 | 50 | 0.0 | 1.0 | 0.00 | 0.15 | 0.15 | 89 | 1009.7 |
| 20260505140541 | 79 | 62 | 0.0 | 0.0 | 0.00 | 0.01 | 0.01 | 91 | 1010.4 |
| 20260505092307 | 80 | 93 | 4.0 | 7.0 | 0.00 | 0.92 | 0.92 | 87 | 1010.0 |
| 20260505091804 | 80 | 93 | 4.0 | 7.0 | 0.00 | 0.92 | 0.92 | 87 | 1010.0 |
| 20260505091302 | 80 | 101 | 4.0 | 9.0 | 0.00 | 0.92 | 0.92 | 87 | 1010.0 |
| 20260505090759 | 80 | 115 | 2.0 | 4.0 | 0.00 | 0.92 | 0.92 | 87 | 1010.0 |
| 20260505090258 | 80 | 106 | 2.0 | 5.0 | 0.00 | 0.92 | 0.92 | 88 | 1009.7 |
| 20260505085754 | 80 | 90 | 5.0 | 8.0 | 0.00 | 0.92 | 0.92 | 88 | 1010.0 |
| 20260505085253 | 80 | 87 | 6.0 | 9.0 | 0.00 | 0.92 | 0.92 | 88 | 1010.0 |
| 20260505084749 | 80 | 101 | 2.0 | 7.0 | 0.00 | 0.92 | 0.92 | 88 | 1010.0 |
| 20260505084244 | 80 | 107 | 1.0 | 5.0 | 0.00 | 0.92 | 0.92 | 88 | 1010.0 |
| 20260505083740 | 80 | 98 | 1.0 | 4.0 | 0.00 | 0.92 | 0.92 | 89 | 1010.0 |
| 20260505083237 | 80 | 111 | 3.0 | 5.0 | 0.00 | 0.92 | 0.92 | 89 | 1010.0 |
| 20260505082733 | 80 | 114 | 4.0 | 11.0 | 0.00 | 0.92 | 0.92 | 88 | 1010.0 |
| 20260505082230 | 80 | 102 | 3.0 | 6.0 | 0.00 | 0.92 | 0.92 | 88 | 1010.0 |
| 20260505081726 | 80 | 106 | 4.0 | 7.0 | 0.00 | 0.92 | 0.92 | 88 | 1010.0 |
| 20260505081224 | 81 | 95 | 2.0 | 8.0 | 0.00 | 0.92 | 0.92 | 88 | 1010.0 |
| 20260505080720 | 80 | 105 | 3.0 | 8.0 | 0.47 | 0.91 | 0.91 | 88 | 1010.0 |
| 20260505080216 | 80 | 106 | 4.0 | 8.0 | 0.00 | 0.91 | 0.91 | 88 | 1010.0 |
| 20260505075712 | 80 | 88 | 4.0 | 8.0 | 0.00 | 0.91 | 0.91 | 88 | 1010.0 |
| 20260505075209 | 80 | 87 | 6.0 | 8.0 | 0.00 | 0.91 | 0.91 | 88 | 1010.0 |
| 20260505074706 | 80 | 96 | 4.0 | 9.0 | 0.00 | 0.91 | 0.91 | 88 | 1010.0 |
| 20260505074203 | 80 | 95 | 1.0 | 4.0 | 0.00 | 0.91 | 0.91 | 89 | 1010.0 |
| 20260505073701 | 80 | 93 | 4.0 | 7.0 | 0.00 | 0.91 | 0.91 | 89 | 1010.0 |
| 20260505073159 | 79 | 92 | 2.0 | 5.0 | 0.00 | 0.91 | 0.91 | 91 | 1010.0 |
| 20260505072654 | 79 | 112 | 0.0 | 0.0 | 0.00 | 0.91 | 0.91 | 91 | 1009.7 |
| 20260505072151 | 79 | 59 | 0.0 | 0.0 | 0.00 | 0.91 | 0.91 | 91 | 1009.7 |
| 20260505071646 | 78 | 68 | 0.0 | 0.0 | 0.00 | 0.91 | 0.91 | 91 | 1009.7 |
| 20260505071144 | 79 | 55 | 0.0 | 0.0 | 0.00 | 0.91 | 0.91 | 91 | 1009.7 |
| 20260505070641 | 79 | 123 | 1.0 | 3.0 | 0.00 | 0.91 | 0.91 | 90 | 1009.7 |
| 20260505070138 | 78 | 159 | 0.0 | 2.0 | 0.00 | 0.91 | 0.91 | 90 | 1009.7 |
| 20260505065633 | 79 | 97 | 0.0 | 2.0 | 0.00 | 0.91 | 0.91 | 90 | 1009.7 |
| 20260505065130 | 79 | 80 | 0.0 | 3.0 | 0.47 | 0.90 | 0.90 | 90 | 1009.7 |
| 20260505064627 | 79 | 105 | 0.0 | 3.0 | 0.00 | 0.90 | 0.90 | 90 | 1009.7 |
| 20260505064126 | 79 | 76 | 0.0 | 0.0 | 0.00 | 0.90 | 0.90 | 90 | 1009.7 |
| 20260505063623 | 79 | 86 | 0.0 | 0.0 | 0.00 | 0.90 | 0.90 | 90 | 1009.3 |
| 20260505063119 | 79 | 60 | 0.0 | 0.0 | 0.00 | 0.90 | 0.90 | 90 | 1009.7 |
| 20260505062615 | 79 | 66 | 0.0 | 0.0 | 0.00 | 0.89 | 0.89 | 90 | 1009.7 |
| 20260505062113 | 79 | 39 | 0.0 | 2.0 | 0.00 | 0.89 | 0.89 | 90 | 1009.7 |
| 20260505061609 | 79 | 81 | 0.0 | 2.0 | 0.00 | 0.89 | 0.89 | 90 | 1009.3 |
| 20260505061108 | 78 | 70 | 0.0 | 0.0 | 0.00 | 0.89 | 0.89 | 89 | 1009.3 |
| 20260505060605 | 78 | 115 | 2.0 | 6.0 | 0.00 | 0.89 | 0.89 | 89 | 1009.3 |
| 20260505055557 | 78 | 83 | 0.0 | 2.0 | 0.00 | 0.88 | 0.88 | 89 | 1009.7 |
| 20260505055054 | 78 | 67 | 0.0 | 0.0 | 0.00 | 0.87 | 0.87 | 89 | 1009.7 |
| 20260505054551 | 78 | 102 | 1.0 | 4.0 | 0.00 | 0.87 | 0.87 | 89 | 1009.7 |
| 20260505054049 | 78 | 65 | 0.0 | 3.0 | 0.00 | 0.86 | 0.86 | 89 | 1009.7 |
| 20260505053546 | 79 | 67 | 0.0 | 3.0 | 0.00 | 0.86 | 0.86 | 89 | 1009.7 |
| 20260505053042 | 78 | 79 | 0.0 | 4.0 | 0.00 | 0.85 | 0.85 | 90 | 1009.7 |
| 20260505052539 | 78 | 125 | 2.0 | 4.0 | 0.47 | 0.84 | 0.84 | 89 | 1009.7 |
| 20260505052037 | 79 | 152 | 3.0 | 7.0 | 0.00 | 0.83 | 0.83 | 89 | 1009.3 |
| 20260505051534 | 79 | 110 | 2.0 | 6.0 | 0.00 | 0.83 | 0.83 | 89 | 1009.3 |
| 20260505051032 | 80 | 131 | 2.0 | 5.0 | 0.00 | 0.83 | 0.83 | 89 | 1009.3 |
| 20260505050530 | 80 | 119 | 2.0 | 6.0 | 0.00 | 0.83 | 0.83 | 88 | 1009.3 |
| 20260505041457 | 80 | 170 | 2.0 | 4.0 | 0.00 | 0.80 | 0.80 | 87 | 1009.0 |
| 20260505040954 | 81 | 144 | 2.0 | 6.0 | 0.00 | 0.79 | 0.79 | 86 | 1009.0 |
| 20260505040452 | 81 | 122 | 0.0 | 1.0 | 0.00 | 0.79 | 0.79 | 86 | 1009.0 |
| 20260505035949 | 82 | 128 | 2.0 | 5.0 | 0.00 | 0.79 | 0.79 | 85 | 1009.0 |
| 20260505035444 | 82 | 144 | 2.0 | 4.0 | 0.00 | 0.79 | 0.79 | 85 | 1009.0 |
| 20260505034942 | 82 | 118 | 0.0 | 3.0 | 0.00 | 0.79 | 0.79 | 84 | 1009.0 |
| 20260505034438 | 83 | 144 | 2.0 | 6.0 | 0.00 | 0.79 | 0.79 | 83 | 1009.0 |
| 20260505033936 | 83 | 34 | 0.0 | 0.0 | 0.00 | 0.79 | 0.79 | 83 | 1009.0 |
| 20260505033432 | 84 | 60 | 0.0 | 0.0 | 0.00 | 0.79 | 0.79 | 83 | 1008.7 |
| 20260505032931 | 84 | 65 | 0.0 | 3.0 | 0.00 | 0.79 | 0.79 | 83 | 1008.7 |
| 20260505032427 | 84 | 91 | 0.0 | 2.0 | 0.00 | 0.79 | 0.79 | 83 | 1009.0 |
| 20260505031924 | 84 | 76 | 0.0 | 0.0 | 0.00 | 0.79 | 0.79 | 82 | 1009.0 |
| 20260505031421 | 84 | 85 | 1.0 | 4.0 | 0.00 | 0.79 | 0.79 | 81 | 1009.0 |
| 20260505030918 | 85 | 85 | 2.0 | 6.0 | 0.00 | 0.79 | 0.79 | 79 | 1009.0 |
| 20260505030413 | 84 | 87 | 1.0 | 4.0 | 0.00 | 0.79 | 0.79 | 80 | 1009.3 |
| 20260505025909 | 84 | 82 | 4.0 | 6.0 | 0.00 | 0.79 | 0.79 | 79 | 1009.3 |
| 20260505025407 | 84 | 88 | 1.0 | 3.0 | 0.00 | 0.79 | 0.79 | 79 | 1009.3 |
| 20260505024906 | 84 | 95 | 4.0 | 5.0 | 0.00 | 0.79 | 0.79 | 79 | 1009.3 |
| 20260505024403 | 84 | 81 | 3.0 | 4.0 | 0.00 | 0.79 | 0.79 | 79 | 1009.3 |
| 20260505023859 | 84 | 68 | 2.0 | 3.0 | 0.00 | 0.79 | 0.79 | 80 | 1009.3 |
| 20260505023357 | 83 | 74 | 3.0 | 4.0 | 0.00 | 0.79 | 0.79 | 80 | 1009.7 |
| 20260505022854 | 83 | 85 | 4.0 | 5.0 | 0.00 | 0.79 | 0.79 | 81 | 1009.7 |
| 20260505022351 | 83 | 84 | 3.0 | 5.0 | 0.00 | 0.79 | 0.79 | 83 | 1009.7 |
| 20260505021848 | 83 | 86 | 5.0 | 6.0 | 0.00 | 0.79 | 0.79 | 84 | 1010.0 |
| 20260505021344 | 83 | 85 | 4.0 | 5.0 | 0.00 | 0.79 | 0.79 | 84 | 1010.0 |
| 20260505020840 | 83 | 84 | 5.0 | 6.0 | 0.00 | 0.79 | 0.79 | 84 | 1010.0 |
| 20260505020336 | 83 | 86 | 4.0 | 6.0 | 0.00 | 0.79 | 0.79 | 84 | 1010.0 |
| 20260505015833 | 83 | 91 | 6.0 | 8.0 | 0.00 | 0.79 | 0.79 | 84 | 1010.4 |
| 20260505015330 | 83 | 93 | 6.0 | 7.0 | 0.00 | 0.79 | 0.79 | 84 | 1010.4 |
| 20260505014827 | 83 | 88 | 6.0 | 8.0 | 0.00 | 0.79 | 0.79 | 85 | 1010.0 |
| 20260505014324 | 83 | 95 | 6.0 | 7.0 | 0.00 | 0.79 | 0.79 | 85 | 1010.4 |
| 20260505013821 | 83 | 94 | 4.0 | 6.0 | 0.00 | 0.79 | 0.79 | 84 | 1010.4 |
| 20260505013318 | 83 | 78 | 3.0 | 3.0 | 0.00 | 0.79 | 0.79 | 83 | 1010.4 |
| 20260505012817 | 83 | 62 | 0.0 | 0.0 | 0.00 | 0.79 | 0.79 | 82 | 1010.4 |
| 20260505012314 | 84 | 56 | 0.0 | 0.0 | 0.00 | 0.79 | 0.79 | 83 | 1010.4 |
| 20260505011809 | 83 | 111 | 0.0 | 0.0 | 0.00 | 0.79 | 0.79 | 82 | 1010.4 |
| 20260505011307 | 83 | 58 | 0.0 | 0.0 | 0.00 | 0.79 | 0.79 | 83 | 1010.7 |
| 20260505010803 | 83 | 73 | 2.0 | 3.0 | 0.00 | 0.79 | 0.79 | 84 | 1010.7 |
| 20260505010259 | 83 | 81 | 0.0 | 0.0 | 0.00 | 0.79 | 0.79 | 85 | 1010.7 |
| 20260505005755 | 83 | 67 | 0.0 | 0.0 | 0.00 | 0.79 | 0.79 | 84 | 1010.7 |
| 20260505005252 | 83 | 248 | 1.0 | 4.0 | 0.00 | 0.79 | 0.79 | 83 | 1010.7 |
| 20260505004749 | 83 | 88 | 0.0 | 0.0 | 0.00 | 0.79 | 0.79 | 82 | 1010.7 |
| 20260505004245 | 83 | 57 | 0.0 | 0.0 | 0.00 | 0.79 | 0.79 | 83 | 1010.4 |
| 20260505003742 | 83 | 63 | 0.0 | 2.0 | 0.00 | 0.79 | 0.79 | 83 | 1010.4 |
| 20260505003240 | 82 | 109 | 1.0 | 3.0 | 0.00 | 0.79 | 0.79 | 85 | 1010.7 |
| 20260505002736 | 82 | 101 | 0.0 | 0.0 | 0.00 | 0.79 | 0.79 | 85 | 1010.4 |
| 20260505002234 | 82 | 127 | 1.0 | 4.0 | 0.00 | 0.79 | 0.79 | 85 | 1010.7 |
| 20260505001731 | 82 | 188 | 4.0 | 8.0 | 0.00 | 0.79 | 0.79 | 86 | 1010.7 |
| 20260505001229 | 82 | 78 | 0.0 | 2.0 | 0.00 | 0.79 | 0.79 | 87 | 1010.7 |
| 20260505000725 | 82 | 107 | 0.0 | 3.0 | 0.00 | 0.79 | 0.79 | 87 | 1010.7 |
| 20260505000226 | 81 | 145 | 2.0 | 5.0 | 0.00 | 0.79 | 0.79 | 86 | 1011.0 |
| 20260504235719 | 82 | 87 | 2.0 | 6.0 | 0.00 | 0.78 | 0.78 | 85 | 1011.0 |
| 20260504235215 | 82 | 78 | 0.0 | 4.0 | 0.00 | 0.78 | 0.78 | 86 | 1011.0 |
| 20260504234713 | 82 | 95 | 0.0 | 3.0 | 0.00 | 0.78 | 0.78 | 86 | 1011.0 |
| 20260504234210 | 82 | 55 | 0.0 | 0.0 | 0.00 | 0.78 | 0.78 | 85 | 1011.4 |
| 20260504233706 | 82 | 139 | 0.0 | 0.0 | 0.00 | 0.78 | 0.78 | 86 | 1011.4 |
| 20260504233202 | 82 | 92 | 1.0 | 4.0 | 0.00 | 0.78 | 0.78 | 86 | 1011.4 |
| 20260504232700 | 82 | 78 | 0.0 | 1.0 | 0.00 | 0.78 | 0.78 | 86 | 1011.4 |
| 20260504232156 | 82 | 105 | 0.0 | 0.0 | 0.00 | 0.78 | 0.78 | 86 | 1011.4 |
| 20260504231653 | 82 | 121 | 1.0 | 4.0 | 0.00 | 0.78 | 0.78 | 87 | 1011.4 |
| 20260504231149 | 82 | 70 | 0.0 | 0.0 | 0.00 | 0.78 | 0.78 | 86 | 1011.4 |
| 20260504230646 | 82 | 104 | 2.0 | 4.0 | 0.00 | 0.78 | 0.78 | 85 | 1011.4 |
| 20260504230145 | 82 | 88 | 3.0 | 8.0 | 0.00 | 0.78 | 0.78 | 85 | 1011.4 |
| 20260504225643 | 82 | 68 | 0.0 | 0.0 | 0.00 | 0.78 | 0.78 | 86 | 1011.4 |
| 20260504225138 | 82 | 46 | 0.0 | 0.0 | 0.00 | 0.78 | 0.78 | 87 | 1011.4 |
| 20260504224635 | 82 | 110 | 1.0 | 6.0 | 0.00 | 0.78 | 0.78 | 88 | 1011.4 |
| 20260504224132 | 82 | 82 | 1.0 | 4.0 | 0.00 | 0.78 | 0.78 | 89 | 1011.4 |
| 20260504223629 | 81 | 110 | 1.0 | 5.0 | 0.00 | 0.78 | 0.78 | 90 | 1011.4 |
| 20260504223125 | 81 | 67 | 0.0 | 3.0 | 0.00 | 0.78 | 0.78 | 91 | 1011.4 |
| 20260504222623 | 81 | 44 | 0.0 | 1.0 | 0.00 | 0.78 | 0.78 | 91 | 1011.4 |
| 20260504222119 | 81 | 83 | 1.0 | 4.0 | 0.00 | 0.78 | 0.78 | 91 | 1011.4 |
| 20260504221616 | 80 | 91 | 3.0 | 4.0 | 0.00 | 0.78 | 0.78 | 91 | 1011.4 |
| 20260504221113 | 80 | 85 | 3.0 | 4.0 | 0.00 | 0.78 | 0.78 | 91 | 1011.4 |
| 20260504220609 | 80 | 90 | 4.0 | 6.0 | 0.00 | 0.78 | 0.78 | 91 | 1011.4 |
| 20260504220107 | 79 | 88 | 4.0 | 7.0 | 0.00 | 0.78 | 0.78 | 91 | 1011.4 |
| 20260504215603 | 79 | 92 | 4.0 | 6.0 | 0.00 | 0.78 | 0.78 | 91 | 1011.4 |
| 20260504215101 | 79 | 86 | 3.0 | 5.0 | 0.00 | 0.77 | 0.77 | 91 | 1011.4 |
| 20260504214557 | 79 | 89 | 4.0 | 6.0 | 0.94 | 0.74 | 0.74 | 91 | 1011.0 |
| 20260504214053 | 80 | 86 | 5.0 | 8.0 | 0.47 | 0.69 | 0.69 | 91 | 1011.0 |
| 20260504213549 | 80 | 91 | 4.0 | 7.0 | 3.31 | 0.62 | 0.62 | 90 | 1011.0 |
| 20260504213047 | 80 | 82 | 6.0 | 7.0 | 0.00 | 0.55 | 0.55 | 90 | 1011.0 |
| 20260504212542 | 80 | 85 | 6.0 | 7.0 | 0.47 | 0.54 | 0.54 | 90 | 1011.0 |
| 20260504212040 | 80 | 68 | 2.0 | 4.0 | 0.00 | 0.53 | 0.53 | 90 | 1011.0 |
| 20260504211537 | 80 | 87 | 4.0 | 6.0 | 0.94 | 0.50 | 0.50 | 89 | 1010.7 |
| 20260504211034 | 80 | 112 | 1.0 | 6.0 | 2.83 | 0.42 | 0.42 | 89 | 1010.7 |
| 20260504210531 | 80 | 80 | 5.0 | 8.0 | 0.47 | 0.39 | 0.39 | 89 | 1010.4 |
| 20260504210027 | 80 | 52 | 0.0 | 0.0 | 0.00 | 0.39 | 0.39 | 88 | 1010.4 |
| 20260504205525 | 80 | 38 | 0.0 | 0.0 | 0.00 | 0.39 | 0.39 | 88 | 1010.4 |